Location: Colle Santa Colomba
(42.0333°N, 12.5667°E)
Time: 21:00:13
(UTC+00:00)

FALCON 9 DEB - Pass Details

Date: 25 October 2021
Orbit: 336 x 348 km, 53.0° (Epoch: 04 December)

Event Time Altitude Azimuth Distance (km) Brightness Sun altitude
Rises 16:58:18 0° 207° (SSW) 2,155 7.2 -9.1°
Reaches altitude 10° 17:00:27 10° 195° (SSW) 1,322 5.9 -9.5°
Maximum altitude 17:03:01 27° 134° (SE) 726 3.9 -9.9°
Enters shadow 17:04:43 16° 85° (E) 1,034 4.4 -10.2°
